Regional Weather Roundup
Issued by NWS Mt. Holly, NJ

Home | Current Version | Previous Version | Text Only | Print | Product List | Glossary On
Versions: 1 2 3 4 5 6 7 8 9 10 11 12 13 14 15 16 17 18 19 20 21 22 23 24 25 26 27
000
ASUS41 KPHI 230312
RWRPHI

REGIONAL WEATHER ROUNDUP
NATIONAL WEATHER SERVICE MOUNT HOLLY NJ
1100 PM EDT MON MAY 22 2017

NOTE:  "FAIR" INDICATES FEW OR NO CLOUDS BELOW 12,000 FEET WITH NO
SIGNIFICANT WEATHER AND/OR OBSTRUCTIONS TO VISIBILITY.

 * = STATION DOES NOT REPORT PRECIPITATION (E.G. RAIN, SNOW, ETC.)
        OR FOG.

NJZ015>026-230400-
SOUTHERN NEW JERSEY

CITY           SKY/WX    TMP DP  RH WIND       PRES   REMARKS
POMONA         FOG       64  63  96 N3        29.96F VSB 1
WILDWOOD*      CLOUDY    64  64 100 CALM      29.96F
MILLVILLE      CLOUDY    64  64 100 N3        29.95F FOG
WRIGHTSTOWN    CLOUDY    63  63 100 NW3       29.94F
MOUNT HOLLY    CLOUDY    63  62  97 CALM      29.96F
TRENTON        CLOUDY    61  60  97 N5        29.96F FOG

$$
NJZ001>014-230400-
NORTHERN NEW JERSEY

CITY           SKY/WX    TMP DP  RH WIND       PRES   REMARKS
SUSSEX         CLOUDY    59  58  96 CALM      29.98F
ANDOVER*         N/A     58  56  93 CALM      29.98S
MORRISTOWN     CLOUDY    59  59 100 CALM      29.97F FOG
NEWARK         CLOUDY    59  59 100 W7        29.96F
TETERBORO      CLOUDY    61  60  97 N3        29.95F FOG
CALDWELL       CLOUDY    62  59  90 CALM      29.97F
SOMERVILLE     CLOUDY    60  59  96 CALM      29.95F
ALLAIRE*       CLOUDY    63  63 100 W5        29.97F FOG
TOMS RIVER*    CLOUDY    62  62 100 CALM      29.97S

$$
PAZ043-044-047-054-055-060>062-066>071-230400-
EASTERN PENNSYLVANIA

CITY           SKY/WX    TMP DP  RH WIND       PRES   REMARKS
PHILADELPHIA   CLOUDY    65  61  87 VRB6      29.97F
NORTH PHILA    CLOUDY    65  62  90 NW5       29.97F
BLUE BELL*     CLOUDY    61  61 100 NW3       29.99S
DOYLESTOWN     CLOUDY    61  61 100 W3        29.97F
QUAKERTOWN*    CLOUDY    59  59 100 CALM      29.99F
PERKASIE*      CLOUDY    59  59 100 W6        29.99F FOG
POTTSTOWN      CLOUDY    61  59  93 CALM      30.00S FOG
LANCASTER      CLOUDY    62  62 100 CALM      29.99S FOG
COATESVILLE    CLOUDY    63  61  94 NW5       30.01S FOG
READING        CLOUDY    62  61  96 CALM      29.98F
ALLENTOWN      CLOUDY    61  57  87 W5        29.99S
MOUNT POCONO   FOG       53  53 100 W10       30.00R VSB 3/4
HAZLETON       CLOUDY    57  54  88 CALM      30.03S
LEHIGHTON      CLOUDY    59  57  94 CALM      30.00S
WILKES BARRE   CLOUDY    60  56  86 SW5       29.98S

$$
DEZALL-MDZ008-012-015-019-020-230400-
DELAWARE AND EASTERN MARYLAND

CITY           SKY/WX    TMP DP  RH WIND       PRES   REMARKS
WILMINGTON     CLOUDY    64  62  93 NW6       29.98S
DOVER          CLOUDY    64  64 100 N3        29.95F
GEORGETOWN     FOG       66  64  93 NE3       29.96F VSB 1/4
EASTON         FOG       65  63  94 N5        30.02R VSB 1/2
ABERDEEN       LGT RAIN  63  61  94 CALM      29.98F
PATUXENT       PTCLDY    64  64 100 NW6       29.97R
OCEAN CITY     FOG       65  64  97 N6        29.95F VSB 1/2
WALLOPS ISLAND CLOUDY    66  66 100 N6        29.93F
CAMBRIDGE      FOG       66  66 100 NW6       29.97R VSB 3/4
SALISBURY      FOG       66  66 100 NE3       29.95F VSB 1/4

$$
PAZ001-021-NYZ056-072-MDZ011-DCZ001-230400-
OTHER NEARBY LOCATIONS

CITY           SKY/WX    TMP DP  RH WIND       PRES   REMARKS
HARRISBURG     CLOUDY    61  59  93 CALM      29.98S
STATE COLLEGE  PTCLDY    56  46  69 SW7       30.03R
WILLIAMSPORT   CLOUDY    57  56  96 CALM      29.99R
BINGHAMTON     CLOUDY    52  42  69 N10       30.01R
NEW YORK CITY  CLOUDY    60  59  96 W6        29.98F FOG
BALTIMORE      MOCLDY    61  61 100 CALM      29.98R
WASHINGTON DC  CLOUDY    67  64  90 E5        29.97S

$$




USA.gov is the U.S. government's official web portal to all federal, state and local government web resources and services.